This demonstration page uses our WeatherBlox Daily Observations layout. Learn more.

Left ArrowRight Arrow

Hourly Observations for May 28, 2021

Temp ( °F °C ) Dew Point ( °F °C ) Humidity (%) Winds ( mph kmh ) Pressure ( in mb ) Visibility ( mi km ) Precip ( " mm )
12:15 am 00:15 Clear 49 9.4 44 6.8 84 84 NNW 6 9 30.14 1021 10 16 N/A
12:35 am 00:35 Clear 48 9.1 44 6.7 85 85 N 7 11 30.15 1021 10 16 N/A
12:55 am 00:55 Partly Cloudy 48 9.1 45 7 87 87 N 7 11 30.15 1021 10 16 N/A
1:15 am 01:15 Clear 48 9.1 45 7 87 87 N 9 15 30.15 1021 10 16 N/A
1:35 am 01:35 Clear 48 8.7 45 7 89 89 N 6 9 30.15 1021 10 16 N/A
1:55 am 01:55 Clear 47 8.5 44 6.6 88 88 N 7 11 30.16 1021 10 16 N/A
2:15 am 02:15 Clear 47 8.5 44 6.6 88 88 N 12 19 30.16 1021 10 16 N/A
2:35 am 02:35 Clear 47 8.2 44 6.7 90 90 N 9 15 30.16 1021 10 16 N/A
2:55 am 02:55 Clear 46 8 44 6.6 91 91 N 7 11 30.16 1021 10 16 N/A
3:15 am 03:15 Clear 46 7.8 44 6.5 92 92 N 7 11 30.17 1022 10 16 N/A
3:35 am 03:35 Partly Cloudy 46 7.8 43 6.2 90 90 N 8 13 30.17 1022 10 16 N/A
3:55 am 03:55 Cloudy 46 7.9 43 6.2 89 89 NNW 6 9 30.17 1022 10 16 N/A
4:15 am 04:15 Cloudy 47 8.1 43 6.3 89 89 NNW 5 7 30.17 1022 10 16 N/A
4:35 am 04:35 Cloudy 47 8.3 43 6.2 87 87 NNW 6 9 30.17 1022 10 16 N/A
4:55 am 04:55 Mostly Cloudy 46 8 43 6 87 87 NNW 5 7 30.18 1022 10 16 N/A
5:15 am 05:15 Mostly Cloudy 46 7.8 43 6 89 89 NNW 8 13 30.18 1022 10 16 N/A
5:35 am 05:35 Cloudy 46 8 43 6.1 88 88 N 16 26 30.18 1022 10 16 N/A
5:55 am 05:55 Cloudy 46 7.9 43 6.1 89 89 N 13 20 30.19 1022 10 16 N/A
6:15 am 06:15 Cloudy 46 7.8 43 6.1 89 89 N 9 15 30.20 1023 10 16 N/A
6:35 am 06:35 Cloudy 46 7.6 43 6 90 90 N 8 13 30.21 1023 10 16 N/A
6:55 am 06:55 Cloudy 46 7.7 43 6 89 89 NNW 7 11 30.21 1023 10 16 N/A
7:15 am 07:15 Cloudy 46 7.7 43 6.2 90 90 NNW 7 11 30.22 1023 10 16 N/A
7:35 am 07:35 Cloudy 46 8 43 6.2 89 89 NNW 7 11 30.22 1023 10 16 N/A
7:55 am 07:55 Cloudy 47 8.1 43 6.2 88 88 NNW 8 13 30.22 1023 10 16 N/A
8:15 am 08:15 Cloudy 47 8.3 44 6.5 89 89 NNW 10 17 30.22 1023 10 16 N/A
8:35 am 08:35 Cloudy 47 8.5 44 6.5 87 87 N 9 15 30.22 1023 10 16 N/A
8:55 am 08:55 Cloudy 49 9.4 44 6.8 84 84 N 10 17 30.21 1023 10 16 N/A
9:15 am 09:15 Cloudy 50 10 44 6.8 81 81 N 7 11 30.20 1023 10 16 N/A
9:35 am 09:35 Cloudy 49 9.5 44 6.6 82 82 N 7 11 30.21 1023 10 16 N/A
9:55 am 09:55 Cloudy 49 9.7 44 6.6 81 81 N 12 19 30.21 1023 10 16 N/A
10:15 am 10:15 Mostly Cloudy 51 10.4 44 6.6 78 78 N 7 11 30.20 1023 10 16 N/A
10:35 am 10:35 Mostly Cloudy 52 11.3 44 6.8 74 74 N 7 11 30.19 1022 10 16 N/A
10:55 am 10:55 Mostly Cloudy 54 12 43 6.3 68 68 NNE 8 13 30.19 1022 10 16 N/A
11:15 am 11:15 Mostly Cloudy 54 12.1 43 6.3 68 68 NE 8 13 30.18 1022 10 16 N/A
11:35 am 11:35 Cloudy 55 12.5 44 6.6 68 68 ENE 9 15 30.18 1022 10 16 N/A
11:55 am 11:55 Cloudy 55 12.6 44 6.9 68 68 ENE 7 11 30.17 1022 10 16 N/A
12:15 pm 12:15 Mostly Cloudy 55 13 44 6.9 67 67 NE 6 9 30.16 1021 10 16 N/A
12:35 pm 12:35 Partly Cloudy 57 13.8 46 7.5 66 66 NE 8 13 30.14 1021 10 16 N/A
12:55 pm 12:55 Mostly Cloudy 57 13.9 45 7.1 64 64 ENE 9 15 30.13 1020 10 16 N/A
1:15 pm 13:15 Cloudy 56 13.5 45 7.2 66 66 ENE 10 17 30.14 1021 10 16 N/A
1:35 pm 13:35 Cloudy 57 13.7 45 7.3 66 66 ESE 6 9 30.14 1021 10 16 N/A
1:55 pm 13:55 Cloudy 57 13.7 45 7.2 65 65 NE 8 13 30.14 1021 10 16 N/A
2:15 pm 14:15 Cloudy 56 13.6 45 7.3 66 66 E 7 11 30.13 1020 10 16 N/A
2:35 pm 14:35 Cloudy 57 14.1 46 7.7 66 66 E 8 13 30.13 1020 10 16 N/A
2:55 pm 14:55 Cloudy 58 14.2 46 7.5 64 64 E 7 11 30.12 1020 10 16 N/A
3:15 pm 15:15 Cloudy 58 14.3 46 7.5 64 64 ENE 9 15 30.13 1020 10 16 N/A
3:35 pm 15:35 Cloudy 58 14.7 46 8 64 64 ENE 5 7 30.11 1020 10 16 N/A
3:55 pm 15:55 Cloudy 58 14.5 46 7.9 65 65 E 7 11 30.11 1020 10 16 N/A
4:15 pm 16:15 Cloudy 58 14.7 47 8.1 65 65 SE 5 7 30.10 1019 10 16 N/A
4:35 pm 16:35 Cloudy 58 14.5 46 8 65 65 E 9 15 30.09 1019 10 16 N/A
4:55 pm 16:55 Cloudy 59 15 47 8.5 65 65 E 5 7 30.09 1019 10 16 N/A
5:15 pm 17:15 Cloudy 58 14.5 47 8.2 66 66 E 6 9 30.09 1019 10 16 N/A
5:35 pm 17:35 Partly Cloudy 58 14.7 46 7.8 64 64 E 5 7 30.08 1019 10 16 N/A
5:55 pm 17:55 Mostly Cloudy 59 15.2 47 8.6 65 65 E 8 13 30.08 1019 10 16 N/A
6:15 pm 18:15 Mostly Cloudy 59 15 47 8.3 64 64 E 8 13 30.08 1019 10 16 N/A
6:35 pm 18:35 Partly Cloudy 58 14.7 47 8.2 65 65 E 7 11 30.08 1019 10 16 N/A
6:55 pm 18:55 Mostly Cloudy 58 14.6 47 8.1 65 65 E 8 13 30.08 1019 10 16 N/A
7:15 pm 19:15 Mostly Cloudy 58 14.5 47 8.1 66 66 E 9 15 30.07 1018 10 16 N/A
7:35 pm 19:35 Cloudy 57 14.1 47 8.2 68 68 ESE 9 15 30.08 1019 10 16 N/A
7:55 pm 19:55 Cloudy 57 14 47 8.2 68 68 ESE 12 19 30.08 1019 10 16 N/A
8:15 pm 20:15 Cloudy 56 13.5 47 8.2 71 71 E 9 15 30.08 1019 10 16 N/A
8:35 pm 20:35 Mostly Cloudy 55 13 47 8.2 73 73 E 10 17 30.09 1019 10 16 N/A
8:55 pm 20:55 Partly Cloudy 55 12.5 47 8.5 77 77 E 10 17 30.10 1019 10 16 N/A
9:15 pm 21:15 Clear 53 11.6 47 8.3 80 80 ESE 9 15 30.11 1020 10 16 N/A
9:35 pm 21:35 Clear 52 11 47 8.4 84 84 ESE 10 17 30.12 1020 10 16 N/A
9:55 pm 21:55 Clear 52 10.9 47 8.2 84 84 E 10 17 30.12 1020 10 16 N/A
10:15 pm 22:15 Clear 51 10.7 47 8.1 84 84 E 13 20 30.13 1020 10 16 N/A
10:35 pm 22:35 Clear 51 10.5 46 8 85 85 ESE 10 17 30.13 1020 10 16 N/A
10:55 pm 22:55 Clear 50 10.2 46 8 86 86 E 15 24 30.13 1020 10 16 N/A
11:15 pm 23:15 Clear 50 9.9 45 7.3 84 84 E 13 20 30.13 1020 10 16 N/A
11:35 pm 23:35 Clear 49 9.6 45 7.3 86 86 ESE 12 19 30.14 1021 10 16 N/A
11:55 pm 23:55 Clear 49 9.2 45 7 86 86 E 10 17 30.14 1021 10 16 N/A

Powered by AerisWeather